Time,TemperatureF,DewpointF,PressureIn,WindDirection,WindDirectionDegrees,WindSpeedMPH,WindSpeedGustMPH,Humidity,HourlyPrecipIn,Conditions,Clouds,dailyrainin,SoftwareType,DateUTC
2013-03-12 00:02:00,30.0,24.0,-100.00,WSW,250,9.0,21.0,77,-99.99,,,-99.99,,2013-03-12 05:02:00,
2013-03-12 00:12:00,30.0,23.0,-100.00,WSW,240,13.0,22.0,74,-99.99,,,-99.99,,2013-03-12 05:12:00,
2013-03-12 00:22:00,30.0,23.0,-100.00,WSW,255,12.0,24.0,75,-99.99,,,-99.99,,2013-03-12 05:22:00,
2013-03-12 00:32:00,30.0,23.0,-100.00,WSW,255,8.0,19.0,76,-99.99,,,-99.99,,2013-03-12 05:32:00,
2013-03-12 00:42:00,30.0,23.0,-100.00,WSW,255,8.0,19.0,76,-99.99,,,-99.99,,2013-03-12 05:42:00,
2013-03-12 00:52:00,30.0,23.0,-100.00,WSW,255,9.0,21.0,76,-99.99,,,-99.99,,2013-03-12 05:52:00,
2013-03-12 01:02:00,30.0,23.0,-100.00,WSW,255,9.0,21.0,76,-99.99,,,-99.99,,2013-03-12 06:02:00,
2013-03-12 01:12:00,30.0,22.0,-100.00,West,270,11.0,21.0,72,-99.99,,,-99.99,,2013-03-12 06:12:00,
2013-03-12 01:22:00,30.0,23.0,-100.00,WSW,250,11.0,21.0,75,-99.99,,,-99.99,,2013-03-12 06:22:00,
2013-03-12 01:32:00,29.0,23.0,-100.00,West,265,6.0,15.0,78,-99.99,,,-99.99,,2013-03-12 06:32:00,
2013-03-12 01:42:00,29.0,23.0,-100.00,West,265,6.0,15.0,78,-99.99,,,-99.99,,2013-03-12 06:42:00,
2013-03-12 01:52:00,29.0,23.0,-100.00,WSW,245,10.0,21.0,76,-99.99,,,-99.99,,2013-03-12 06:52:00,
2013-03-12 02:02:00,29.0,23.0,-100.00,WSW,245,10.0,21.0,76,-99.99,,,-99.99,,2013-03-12 07:02:00,
2013-03-12 02:12:00,29.0,23.0,-100.00,WSW,255,11.0,21.0,78,-99.99,,,-99.99,,2013-03-12 07:12:00,
2013-03-12 02:22:00,29.0,24.0,-100.00,WSW,250,9.0,19.0,80,-99.99,,,-99.99,,2013-03-12 07:22:00,
2013-03-12 02:32:00,29.0,24.0,-100.00,WSW,250,9.0,19.0,80,-99.99,,,-99.99,,2013-03-12 07:32:00,
2013-03-12 02:42:00,29.0,24.0,-100.00,SW,225,12.0,21.0,82,-99.99,,,-99.99,,2013-03-12 07:42:00,
2013-03-12 02:52:00,29.0,24.0,-100.00,SW,235,10.0,17.0,80,-99.99,,,-99.99,,2013-03-12 07:52:00,
2013-03-12 03:02:00,29.0,24.0,-100.00,SW,235,10.0,17.0,80,-99.99,,,-99.99,,2013-03-12 08:02:00,
2013-03-12 03:13:00,29.0,24.0,-100.00,SW,235,10.0,16.0,81,-99.99,,,-99.99,,2013-03-12 08:13:00,
2013-03-12 03:22:00,28.0,23.0,-100.00,WSW,255,10.0,20.0,80,-99.99,,,-99.99,,2013-03-12 08:22:00,
2013-03-12 03:33:00,28.0,23.0,-100.00,WSW,255,10.0,20.0,80,-99.99,,,-99.99,,2013-03-12 08:33:00,
2013-03-12 03:42:00,28.0,22.0,-100.00,WSW,250,11.0,16.0,80,-99.99,,,-99.99,,2013-03-12 08:42:00,
2013-03-12 03:52:00,27.0,22.0,-100.00,WSW,240,9.0,19.0,80,-99.99,,,-99.99,,2013-03-12 08:52:00,
2013-03-12 04:03:00,27.0,22.0,-100.00,WSW,240,9.0,19.0,80,-99.99,,,-99.99,,2013-03-12 09:03:00,
2013-03-12 04:12:00,27.0,22.0,-100.00,SW,225,5.0,17.0,80,-99.99,,,-99.99,,2013-03-12 09:12:00,
2013-03-12 04:22:00,27.0,21.0,-100.00,WSW,250,10.0,17.0,79,-99.99,,,-99.99,,2013-03-12 09:22:00,
2013-03-12 04:32:00,27.0,21.0,-100.00,WSW,250,10.0,17.0,79,-99.99,,,-99.99,,2013-03-12 09:32:00,
2013-03-12 04:42:00,27.0,21.0,-100.00,WSW,255,10.0,19.0,78,-99.99,,,-99.99,,2013-03-12 09:42:00,
2013-03-12 04:52:00,27.0,20.0,-100.00,WSW,245,11.0,20.0,76,-99.99,,,-99.99,,2013-03-12 09:52:00,
2013-03-12 05:02:00,27.0,20.0,-100.00,WSW,245,11.0,20.0,76,-99.99,,,-99.99,,2013-03-12 10:02:00,
2013-03-12 05:12:00,27.0,20.0,-100.00,West,265,11.0,23.0,75,-99.99,,,-99.99,,2013-03-12 10:12:00,
2013-03-12 05:22:00,27.0,20.0,-100.00,West,270,8.0,16.0,75,-99.99,,,-99.99,,2013-03-12 10:22:00,
2013-03-12 05:32:00,27.0,20.0,-100.00,West,270,8.0,16.0,75,-99.99,,,-99.99,,2013-03-12 10:32:00,
2013-03-12 05:42:00,27.0,21.0,-100.00,WSW,255,9.0,18.0,78,-99.99,,,-99.99,,2013-03-12 10:42:00,
2013-03-12 05:52:00,26.0,21.0,-100.00,WSW,250,5.0,14.0,78,-99.99,,,-99.99,,2013-03-12 10:52:00,
2013-03-12 06:02:00,26.0,21.0,-100.00,WSW,250,5.0,14.0,78,-99.99,,,-99.99,,2013-03-12 11:02:00,
2013-03-12 06:12:00,26.0,21.0,-100.00,WSW,255,5.0,14.0,79,-99.99,,,-99.99,,2013-03-12 11:12:00,
2013-03-12 06:22:00,26.0,21.0,-100.00,SW,230,5.0,11.0,81,-99.99,,,-99.99,,2013-03-12 11:22:00,
2013-03-12 06:32:00,26.0,21.0,-100.00,SW,230,5.0,11.0,81,-99.99,,,-99.99,,2013-03-12 11:32:00,
2013-03-12 06:42:00,25.0,21.0,-100.00,WSW,240,5.0,10.0,83,-99.99,,,-99.99,,2013-03-12 11:42:00,
2013-03-12 06:52:00,25.0,21.0,-100.00,SW,220,5.0,12.0,85,-99.99,,,-99.99,,2013-03-12 11:52:00,
2013-03-12 07:02:00,25.0,21.0,-100.00,SW,220,5.0,12.0,85,-99.99,,,-99.99,,2013-03-12 12:02:00,
2013-03-12 07:12:00,25.0,21.0,-100.00,SW,215,6.0,13.0,85,-99.99,,,-99.99,,2013-03-12 12:12:00,
2013-03-12 07:22:00,25.0,22.0,-100.00,SW,230,6.0,10.0,87,-99.99,,,-99.99,,2013-03-12 12:22:00,
2013-03-12 07:32:00,25.0,22.0,-100.00,SW,230,6.0,10.0,87,-99.99,,,-99.99,,2013-03-12 12:32:00,
2013-03-12 07:42:00,25.0,22.0,-100.00,SSW,205,4.0,10.0,87,-99.99,,,-99.99,,2013-03-12 12:42:00,
2013-03-12 07:52:00,25.0,22.0,-100.00,WSW,240,4.0,10.0,88,-99.99,,,-99.99,,2013-03-12 12:52:00,
2013-03-12 08:02:00,25.0,22.0,-100.00,WSW,240,4.0,10.0,88,-99.99,,,-99.99,,2013-03-12 13:02:00,
2013-03-12 08:12:00,25.0,22.0,-100.00,SW,230,6.0,11.0,89,-99.99,,,-99.99,,2013-03-12 13:12:00,
2013-03-12 08:22:00,25.0,22.0,-100.00,SW,215,5.0,9.0,89,-99.99,,,-99.99,,2013-03-12 13:22:00,
2013-03-12 08:32:00,25.0,22.0,-100.00,SW,215,5.0,9.0,89,-99.99,,,-99.99,,2013-03-12 13:32:00,
2013-03-12 08:42:00,26.0,23.0,-100.00,SW,215,5.0,10.0,88,-99.99,,,-99.99,,2013-03-12 13:42:00,
2013-03-12 08:52:00,27.0,23.0,-100.00,WSW,250,7.0,14.0,84,-99.99,,,-99.99,,2013-03-12 13:52:00,
2013-03-12 09:02:00,27.0,23.0,-100.00,WSW,250,7.0,14.0,84,-99.99,,,-99.99,,2013-03-12 14:02:00,
2013-03-12 09:12:00,29.0,24.0,-100.00,WSW,240,4.0,14.0,80,-99.99,,,-99.99,,2013-03-12 14:12:00,
2013-03-12 09:22:00,29.0,23.0,-100.00,West,260,7.0,16.0,79,-99.99,,,-99.99,,2013-03-12 14:22:00,
2013-03-12 09:33:00,29.0,23.0,-100.00,West,260,7.0,16.0,79,-99.99,,,-99.99,,2013-03-12 14:33:00,
2013-03-12 09:42:00,30.0,23.0,-100.00,SW,220,8.0,14.0,75,-99.99,,,-99.99,,2013-03-12 14:42:00,
2013-03-12 09:53:00,32.0,24.0,-100.00,WSW,245,6.0,11.0,71,-99.99,,,-99.99,,2013-03-12 14:53:00,
2013-03-12 10:02:00,32.0,24.0,-100.00,WSW,245,6.0,11.0,71,-99.99,,,-99.99,,2013-03-12 15:02:00,
2013-03-12 10:12:00,33.0,24.0,-100.00,WSW,240,4.0,11.0,69,-99.99,,,-99.99,,2013-03-12 15:12:00,
2013-03-12 10:22:00,35.0,25.0,-100.00,SW,235,7.0,14.0,67,-99.99,,,-99.99,,2013-03-12 15:22:00,
2013-03-12 10:32:00,35.0,25.0,-100.00,SW,235,7.0,14.0,67,-99.99,,,-99.99,,2013-03-12 15:32:00,
2013-03-12 10:42:00,35.0,25.0,-100.00,SW,235,7.0,14.0,67,-99.99,,,-99.99,,2013-03-12 15:42:00,
2013-03-12 11:12:00,35.0,24.0,-100.00,WSW,250,11.0,18.0,64,-99.99,,,-99.99,,2013-03-12 16:12:00,
2013-03-12 11:22:00,36.0,25.0,-100.00,SW,235,11.0,18.0,63,-99.99,,,-99.99,,2013-03-12 16:22:00,
2013-03-12 11:33:00,36.0,25.0,-100.00,SW,235,11.0,18.0,63,-99.99,,,-99.99,,2013-03-12 16:33:00,
2013-03-12 11:43:00,37.0,26.0,-100.00,SW,230,8.0,18.0,62,-99.99,,,-99.99,,2013-03-12 16:43:00,
2013-03-12 11:53:00,38.0,25.0,-100.00,SW,235,6.0,16.0,59,-99.99,,,-99.99,,2013-03-12 16:53:00,
2013-03-12 12:03:00,38.0,25.0,-100.00,SW,235,6.0,14.0,57,-99.99,,,-99.99,,2013-03-12 17:03:00,
2013-03-12 12:13:00,38.0,25.0,-100.00,SW,235,6.0,14.0,57,-99.99,,,-99.99,,2013-03-12 17:13:00,
2013-03-12 12:22:00,40.0,26.0,-100.00,WSW,240,7.0,14.0,56,-99.99,,,-99.99,,2013-03-12 17:22:00,
2013-03-12 12:34:00,40.0,26.0,-100.00,WSW,240,7.0,14.0,56,-99.99,,,-99.99,,2013-03-12 17:34:00,
2013-03-12 12:43:00,37.0,25.0,-100.00,WSW,240,8.0,19.0,61,-99.99,,,-99.99,,2013-03-12 17:43:00,
2013-03-12 12:53:00,35.0,26.0,-100.00,SW,225,9.0,22.0,68,-99.99,,,-99.99,,2013-03-12 17:53:00,
2013-03-12 13:03:00,35.0,26.0,-100.00,SW,225,9.0,22.0,68,-99.99,,,-99.99,,2013-03-12 18:03:00,
2013-03-12 13:13:00,34.0,27.0,-100.00,SW,220,11.0,17.0,76,-99.99,,,-99.99,,2013-03-12 18:13:00,
2013-03-12 13:23:00,32.0,29.0,-100.00,SSW,205,4.0,13.0,88,-99.99,,,-99.99,,2013-03-12 18:23:00,
2013-03-12 13:33:00,32.0,29.0,-100.00,SSW,205,4.0,13.0,88,-99.99,,,-99.99,,2013-03-12 18:33:00,
2013-03-12 13:42:00,31.0,29.0,-100.00,SW,230,9.0,19.0,92,-99.99,,,-99.99,,2013-03-12 18:42:00,
2013-03-12 13:53:00,33.0,31.0,-100.00,SW,215,8.0,15.0,93,-99.99,,,-99.99,,2013-03-12 18:53:00,
2013-03-12 14:03:00,33.0,31.0,-100.00,SW,215,8.0,15.0,93,-99.99,,,-99.99,,2013-03-12 19:03:00,
2013-03-12 14:13:00,33.0,31.0,-100.00,SW,220,6.0,16.0,91,-99.99,,,-99.99,,2013-03-12 19:13:00,
2013-03-12 14:23:00,32.0,30.0,-100.00,West,265,13.0,21.0,91,-99.99,,,-99.99,,2013-03-12 19:23:00,
2013-03-12 14:33:00,32.0,30.0,-100.00,West,265,13.0,21.0,91,-99.99,,,-99.99,,2013-03-12 19:33:00,
2013-03-12 14:43:00,33.0,29.0,-100.00,SW,235,9.0,23.0,88,-99.99,,,-99.99,,2013-03-12 19:43:00,
2013-03-12 14:53:00,33.0,29.0,-100.00,West,260,13.0,24.0,85,-99.99,,,-99.99,,2013-03-12 19:53:00,
2013-03-12 15:02:00,33.0,29.0,-100.00,West,260,13.0,24.0,85,-99.99,,,-99.99,,2013-03-12 20:02:00,
2013-03-12 15:12:00,33.0,29.0,-100.00,West,260,13.0,24.0,85,-99.99,,,-99.99,,2013-03-12 20:12:00,
2013-03-12 15:23:00,35.0,29.0,-100.00,WSW,250,9.0,21.0,78,-99.99,,,-99.99,,2013-03-12 20:23:00,
2013-03-12 15:32:00,35.0,29.0,-100.00,WSW,250,9.0,21.0,78,-99.99,,,-99.99,,2013-03-12 20:32:00,
2013-03-12 15:42:00,34.0,28.0,-100.00,WSW,255,14.0,27.0,79,-99.99,,,-99.99,,2013-03-12 20:42:00,
2013-03-12 15:53:00,35.0,28.0,-100.00,WSW,240,13.0,22.0,78,-99.99,,,-99.99,,2013-03-12 20:53:00,
2013-03-12 16:02:00,35.0,28.0,-100.00,WSW,240,13.0,22.0,78,-99.99,,,-99.99,,2013-03-12 21:02:00,
2013-03-12 16:13:00,35.0,28.0,-100.00,SW,235,11.0,24.0,77,-99.99,,,-99.99,,2013-03-12 21:13:00,
2013-03-12 16:22:00,34.0,29.0,-100.00,WSW,255,11.0,25.0,84,-99.99,,,-99.99,,2013-03-12 21:22:00,
2013-03-12 16:32:00,34.0,29.0,-100.00,WSW,255,11.0,25.0,84,-99.99,,,-99.99,,2013-03-12 21:32:00,
2013-03-12 16:43:00,34.0,29.0,-100.00,WSW,245,13.0,21.0,81,-99.99,,,-99.99,,2013-03-12 21:43:00,
2013-03-12 16:53:00,35.0,29.0,-100.00,WSW,245,14.0,27.0,80,-99.99,,,-99.99,,2013-03-12 21:53:00,
2013-03-12 17:02:00,35.0,29.0,-100.00,WSW,245,14.0,27.0,80,-99.99,,,-99.99,,2013-03-12 22:02:00,
2013-03-12 17:12:00,35.0,27.0,-100.00,West,260,11.0,30.0,73,-99.99,,,-99.99,,2013-03-12 22:12:00,
2013-03-12 17:22:00,34.0,26.0,-100.00,West,275,15.0,24.0,72,-99.99,,,-99.99,,2013-03-12 22:22:00,
2013-03-12 17:33:00,34.0,26.0,-100.00,West,275,15.0,24.0,72,-99.99,,,-99.99,,2013-03-12 22:33:00,
2013-03-12 17:42:00,34.0,23.0,-100.00,West,260,16.0,31.0,63,-99.99,,,-99.99,,2013-03-12 22:42:00,
2013-03-12 17:53:00,33.0,23.0,-100.00,WSW,245,12.0,32.0,66,-99.99,,,-99.99,,2013-03-12 22:53:00,
2013-03-12 18:02:00,33.0,23.0,-100.00,WSW,245,12.0,32.0,66,-99.99,,,-99.99,,2013-03-12 23:02:00,
2013-03-12 18:12:00,33.0,24.0,-100.00,West,280,16.0,28.0,70,-99.99,,,-99.99,,2013-03-12 23:12:00,
2013-03-12 18:22:00,32.0,24.0,-100.00,West,265,16.0,28.0,71,-99.99,,,-99.99,,2013-03-12 23:22:00,
2013-03-12 18:34:00,32.0,24.0,-100.00,West,265,16.0,28.0,71,-99.99,,,-99.99,,2013-03-12 23:34:00,
2013-03-12 18:43:00,32.0,23.0,-100.00,West,280,12.0,26.0,70,-99.99,,,-99.99,,2013-03-12 23:43:00,
2013-03-12 18:52:00,31.0,21.0,-100.00,West,260,20.0,27.0,67,-99.99,,,-99.99,,2013-03-12 23:52:00,
2013-03-12 19:03:00,31.0,21.0,-100.00,West,260,20.0,27.0,67,-99.99,,,-99.99,,2013-03-13 00:03:00,
2013-03-12 19:12:00,30.0,21.0,-100.00,West,280,19.0,27.0,67,-99.99,,,-99.99,,2013-03-13 00:12:00,
2013-03-12 19:23:00,30.0,21.0,-100.00,West,280,16.0,30.0,68,-99.99,,,-99.99,,2013-03-13 00:23:00,
2013-03-12 19:33:00,30.0,21.0,-100.00,West,280,16.0,30.0,68,-99.99,,,-99.99,,2013-03-13 00:33:00,
2013-03-12 19:42:00,30.0,20.0,-100.00,WNW,285,16.0,25.0,68,-99.99,,,-99.99,,2013-03-13 00:42:00,
2013-03-12 19:53:00,29.0,21.0,-100.00,West,275,18.0,28.0,71,-99.99,,,-99.99,,2013-03-13 00:53:00,
2013-03-12 20:03:00,29.0,21.0,-100.00,West,275,18.0,28.0,71,-99.99,,,-99.99,,2013-03-13 01:03:00,
2013-03-12 20:12:00,28.0,22.0,-100.00,West,265,16.0,25.0,77,-99.99,,,-99.99,,2013-03-13 01:12:00,
2013-03-12 20:22:00,28.0,21.0,-100.00,West,260,9.0,25.0,72,-99.99,,,-99.99,,2013-03-13 01:22:00,
2013-03-12 20:32:00,28.0,21.0,-100.00,West,260,9.0,25.0,72,-99.99,,,-99.99,,2013-03-13 01:32:00,
2013-03-12 20:42:00,28.0,21.0,-100.00,West,275,10.0,23.0,76,-99.99,,,-99.99,,2013-03-13 01:42:00,
2013-03-12 20:53:00,28.0,21.0,-100.00,West,265,10.0,25.0,75,-99.99,,,-99.99,,2013-03-13 01:53:00,
2013-03-12 21:02:00,28.0,21.0,-100.00,West,265,10.0,25.0,75,-99.99,,,-99.99,,2013-03-13 02:02:00,
2013-03-12 21:12:00,28.0,20.0,-100.00,West,280,19.0,32.0,71,-99.99,,,-99.99,,2013-03-13 02:12:00,
2013-03-12 21:22:00,28.0,19.0,-100.00,West,280,16.0,24.0,69,-99.99,,,-99.99,,2013-03-13 02:22:00,
2013-03-12 21:32:00,28.0,19.0,-100.00,West,280,16.0,24.0,69,-99.99,,,-99.99,,2013-03-13 02:32:00,
2013-03-12 21:43:00,28.0,20.0,-100.00,WNW,285,14.0,26.0,70,-99.99,,,-99.99,,2013-03-13 02:43:00,
2013-03-12 21:53:00,28.0,19.0,-100.00,West,270,14.0,26.0,68,-99.99,,,-99.99,,2013-03-13 02:53:00,
2013-03-12 22:02:00,28.0,19.0,-100.00,West,270,14.0,26.0,68,-99.99,,,-99.99,,2013-03-13 03:02:00,
2013-03-12 22:12:00,27.0,19.0,-100.00,West,280,14.0,24.0,69,-99.99,,,-99.99,,2013-03-13 03:12:00,
2013-03-12 22:22:00,27.0,19.0,-100.00,West,265,11.0,21.0,71,-99.99,,,-99.99,,2013-03-13 03:22:00,
2013-03-12 22:32:00,27.0,19.0,-100.00,West,265,11.0,21.0,71,-99.99,,,-99.99,,2013-03-13 03:32:00,
2013-03-12 22:42:00,27.0,20.0,-100.00,WNW,285,13.0,22.0,72,-99.99,,,-99.99,,2013-03-13 03:42:00,
2013-03-12 22:53:00,27.0,19.0,-100.00,West,280,14.0,29.0,70,-99.99,,,-99.99,,2013-03-13 03:53:00,
2013-03-12 23:03:00,27.0,19.0,-100.00,West,280,14.0,29.0,70,-99.99,,,-99.99,,2013-03-13 04:03:00,
2013-03-12 23:13:00,27.0,19.0,-100.00,West,275,14.0,22.0,71,-99.99,,,-99.99,,2013-03-13 04:13:00,
2013-03-12 23:22:00,27.0,19.0,-100.00,West,275,14.0,24.0,74,-99.99,,,-99.99,,2013-03-13 04:22:00,
2013-03-12 23:32:00,27.0,20.0,-100.00,West,280,11.0,21.0,74,-99.99,,,-99.99,,2013-03-13 04:32:00,
2013-03-12 23:43:00,27.0,20.0,-100.00,West,280,11.0,21.0,74,-99.99,,,-99.99,,2013-03-13 04:43:00,
2013-03-12 23:53:00,27.0,20.0,-100.00,West,280,14.0,24.0,74,-99.99,,,-99.99,,2013-03-13 04:53:00,